Miscellaneous Local Product
Issued by NWS Hastings, NE

Home | Current Version | Previous Version | Graphics & Text | Print | Product List | Glossary On
Versions: 1 2 3 4 5 6 7 8 9 10 11 12 13 14 15 16 17 18 19 20 21 22 23 24 25 26 27 28 29 30 31 32 33 34 35 36 37 38 39 40 41 42 43 44 45 46 47 48 49 50
000
AXUS43 KGID 271502
MISGRI

GID CWA HOURLY WEATHER ROUNDUP
NATIONAL WEATHER SERVICE HASTINGS NE
900 AM CST SAT DEC 27 2014

NOTE: "FAIR" INDICATES FEW OR NO CLOUDS BELOW 12,000 FEET WITH NO
SIGNIFICANT WEATHER AND/OR OBSTRUCTIONS TO VISIBILITY.

...SOUTH CENTRAL NEBRASKA...

CITY           SKY/WX    TMP DP  RH WIND       PRES   REMARKS
GRAND ISLAND   MOCLDY     9   5  84 W10       30.26R WCI  -5
HASTINGS       PTCLDY    12   8  84 NW13      30.24R WCI  -3
KEARNEY        PTCLDY     9   5  85 W7        30.25S WCI  -3
ORD            PTCLDY     7   4  87 W6        30.22R WCI  -3
YORK           CLEAR     14  10  85 NW13      30.23R WCI   0
AURORA         PTCLDY    14  12  90 NW12      30.24R WCI   1
LEXINGTON      MOCLDY     5   2  88 W7        30.25R WCI  -7
HOLDREGE       PTCLDY     9   6  87 W8        30.24F WCI  -3
HEBRON         PTCLDY    17  13  82 NW6       30.28R WCI   9

...NEBRASKA PANHANDLE...

CITY           SKY/WX    TMP DP  RH WIND       PRES   REMARKS
CHADRON        PTCLDY     5   2  87 W6        30.15S WCI  -6
ALLIANCE       PTCLDY    -3  -6  87 W9        30.13R WCI -19
SCOTTSBLUFF    MOCLDY     0  -3  87 NW8       30.16S WCI -14
SIDNEY         PTCLDY     4  -3  73 W15       30.14S WCI -14

...WESTERN AND NORTH CENTRAL NEBRASKA...

CITY           SKY/WX    TMP DP  RH WIND       PRES   REMARKS
VALENTINE      PTCLDY     1  -3  83 SW8       30.16S WCI -13
AINSWORTH      PTCLDY     6   3  86 W5        30.16R WCI  -2
ONEILL         PTCLDY     6   5  92 W8        30.18R WCI  -6
BROKEN BOW     PTCLDY    10   4  76 NW8       30.21R WCI  -2
IMPERIAL       MOCLDY     4  -1  80 SW7       30.23R WCI  -8
NORTH PLATTE   PTCLDY    -3  -5  90 CALM      30.22R
MCCOOK         MOCLDY     9   5  84 W8        30.27R WCI  -3

...EASTERN NEBRASKA...

CITY           SKY/WX    TMP DP  RH WIND       PRES   REMARKS
NORFOLK        CLEAR     14  10  84 W8        30.21R WCI   3
SO SIOUX CITY  CLEAR     16  11  80 NW9       30.22R WCI   4
TEKAMAH        CLEAR     19  13  77 NW15      30.23R WCI   5
COLUMBUS       CLEAR     12   3  67 W9        30.25R WCI   0
ALBION         PTCLDY     9   6  87 CALM      30.23R
OMAHA EPPLEY   MOCLDY    22  17  81 NW12      30.24R WCI  10
OFFUTT AFB     MOCLDY    22  17  83 NW12      30.23R WCI  10
MILLARD        CLEAR     21  15  79 NW7       30.24R WCI  12
LINCOLN        CLEAR     19  13  77 NW9       30.27R WCI   8
NEBRASKA CITY  MOSUNNY   22  19  87 NW13      30.23R WCI  10
BEATRICE       SUNNY     19  15  84 NW7       30.27R WCI  10
FALLS CITY     CLOUDY    25  19  78 NW12      30.26R WCI  14

...NORTHERN KANSAS...

CITY           SKY/WX    TMP DP  RH WIND       PRES   REMARKS
GOODLAND       PTCLDY     8   4  83 W12       30.22F WCI  -7
HILL CITY      CLEAR     11   6  81 W9        30.29R WCI  -2
NORTON         SUNNY     12   9  85 W8        30.26S WCI   1
PHILLIPSBURG   CLEAR     16  10  79 W9        30.28S WCI   4
BELOIT         CLEAR     18  12  79 W5        30.31R WCI  11
HAYS           FAIR      14   3  62 NW8       30.29R WCI   3
RUSSELL        MOCLDY    18  14  84 NW6       30.29R WCI  10
CONCORDIA      PTSUNNY   19  15  84 NW7       30.29R WCI  10
SALINA         PTSUNNY   23  16  74 NW13      30.32S WCI  11
TOPEKA         PTSUNNY   29  21  72 NW12      30.28R WCI  19



USA.gov is the U.S. government's official web portal to all federal, state and local government web resources and services.